Montreal, Quebec

2:56 PM EDT on May 25, 2018 (GMT -0400)
Montreal-Pierre Elliott Trudeau Int'l Airport

Weather History for CYUL - November, 2013

Change the Weather History Date:

Monday, November 11, 2013

  Actual Average Record
Temperature  
Mean Temperature 35 °F -  
Max Temperature 38 °F 36 °F 64 °F (2002)
Min Temperature 30 °F 22 °F 14 °F (2017)
Degree Days  
Heating Degree Days 30    
Moisture  
Dew Point 30 °F    
Average Humidity 79    
Maximum Humidity 93    
Minimum Humidity 59    
Precipitation  
Precipitation 0.20 in 0.12 in - ()
Sea Level Pressure  
Sea Level Pressure 29.92 in    
Wind  
Wind Speed 15 mph ()    
Max Wind Speed 24 mph    
Max Gust Speed 34 mph    
Visibility 10.5 miles    
Events Rain , Snow    
Averages and records for this station are not official NWS values.
T = Trace of Precipitation, MM = Missing Value Source: Averaged Metar Reports

Daily Weather History Graph

Daily Weather History Graph

Search for Another Location

Airport or City:

Astronomy

Nov. 11, 2013 Rise Set
Actual Time 6:48 AM EST 4:28 PM EST
Civil Twilight 6:16 AM EST 5:00 PM EST
Nautical Twilight 5:41 AM EST 5:36 PM EST
Astronomical Twilight 5:06 AM EST 6:10 PM EST
Moon 1:24 PM EST (11/11) 12:13 AM EST (11/11)
Length of Visible Light 10h 43m
Length of Day
9h 40m
Waxing Gibbous, 66% of the Moon is Illuminated
Nov 11
Waxing Gibbous
Nov 17
Full
Nov 25
Last Quarter
Dec 2
New
Dec 9
First Quarter

Hourly Weather History & Observations

Time (EST) Temp. Windchill Dew Point Humidity Pressure Visibility Wind Dir Wind Speed Gust Speed Precip Events Conditions
12:00 AM 37.4 °F 27.8 °F 33.8 °F 87% 29.88 in 10.0 mi West 17.3 mph - N/A Rain Light Rain
12:36 AM 37.4 °F 27.5 °F 32.0 °F 81% 29.90 in 7.0 mi West 18.4 mph 25.3 mph N/A Rain Light Rain
12:48 AM 35.6 °F 24.5 °F 32.0 °F 87% 29.91 in 8.0 mi West 20.7 mph 27.6 mph N/A Rain Light Rain
1:00 AM 36 °F - 31 °F 77% 29.92 in 7 mi West 19.6 mph - - Rain Light Rain
1:00 AM 35.6 °F 24.5 °F 32.0 °F 87% 29.92 in 8.0 mi West 20.7 mph 27.6 mph N/A Rain Light Rain
1:23 AM 35.6 °F 25.5 °F 32.0 °F 87% 29.93 in 10.0 mi West 17.3 mph 31.1 mph N/A   Overcast
2:00 AM 35.6 °F 24.5 °F 28.4 °F 75% 29.95 in 15.0 mi West 20.7 mph 32.2 mph N/A   Scattered Clouds
3:00 AM 35.6 °F 24.0 °F 26.6 °F 70% 29.98 in 15.0 mi West 23.0 mph 31.1 mph N/A   Mostly Cloudy
4:00 AM 35.6 °F 25.5 °F 28.4 °F 75% 30.02 in 15.0 mi West 17.3 mph - N/A   Mostly Cloudy
5:00 AM 33.8 °F 22.2 °F 26.6 °F 75% 30.04 in 15.0 mi West 20.7 mph - N/A   Overcast
6:00 AM 33.8 °F 23.9 °F 26.6 °F 75% 30.06 in 15.0 mi West 15.0 mph - N/A   Overcast
7:00 AM 33 °F - 25 °F 61% 30.07 in 15 mi West 13.8 mph - -   Partly Cloudy
7:00 AM 33.8 °F 23.5 °F 24.8 °F 70% 30.07 in 15.0 mi West 16.1 mph - N/A   Overcast
8:00 AM 33.8 °F 24.3 °F 23.0 °F 65% 30.08 in 15.0 mi WSW 13.8 mph - N/A   Overcast
9:00 AM 33.8 °F 24.8 °F 24.8 °F 70% 30.06 in 15.0 mi SW 12.7 mph - N/A   Overcast
10:00 AM 33.8 °F 25.3 °F 24.8 °F 70% 30.05 in 15.0 mi WSW 11.5 mph - N/A   Overcast
11:00 AM 37.4 °F 29.3 °F 24.8 °F 60% 30.01 in 15.0 mi SW 12.7 mph 20.7 mph N/A   Overcast
12:00 PM 37.4 °F 28.9 °F 26.6 °F 65% 29.97 in 15.0 mi SW 13.8 mph 19.6 mph N/A   Overcast
12:48 PM 37.4 °F 29.3 °F 26.6 °F 65% 29.94 in 10.0 mi SSW 12.7 mph - N/A Snow Light Snow Showers
1:00 PM 38 °F - 29 °F 59% 29.94 in 10 mi South 11.5 mph - - Snow Light Snow
1:00 PM 37.4 °F 30.3 °F 28.4 °F 70% 29.93 in 10.0 mi South 10.4 mph - N/A Snow Light Snow Showers
1:30 PM 37.4 °F 28.5 °F 32.0 °F 81% 29.92 in 10.0 mi SSW 15.0 mph - N/A Rain Light Rain
2:00 PM 37.4 °F 28.5 °F 33.8 °F 87% 29.90 in 7.0 mi South 15.0 mph - N/A Rain , Snow Light Rain
2:31 PM 37.4 °F 29.3 °F 33.8 °F 87% 29.88 in 6.0 mi South 12.7 mph - N/A Rain Light Rain
3:00 PM 37.4 °F 30.3 °F 35.6 °F 93% 29.86 in 8.0 mi South 10.4 mph 18.4 mph N/A Rain Light Rain
4:00 PM 37.4 °F 28.2 °F 35.6 °F 93% 29.83 in 7.0 mi South 16.1 mph 25.3 mph N/A Rain Light Rain
5:00 PM 39.2 °F 29.6 °F 35.6 °F 87% 29.82 in 7.0 mi SSW 19.6 mph 27.6 mph N/A Rain Light Rain
6:00 PM 39.2 °F 29.6 °F 35.6 °F 87% 29.81 in 7.0 mi SW 19.6 mph 28.8 mph N/A Rain Light Rain
7:00 PM 38 °F - 36 °F 87% 29.79 in 7 mi SW 21.9 mph - - Rain Light Rain
7:00 PM 37.4 °F 26.4 °F 35.6 °F 93% 29.79 in 8.0 mi SW 23.0 mph 29.9 mph N/A Rain Light Rain
7:52 PM 37.4 °F 27.8 °F 35.6 °F 93% 29.78 in 7.0 mi SW 17.3 mph 26.5 mph N/A Rain Light Rain
8:00 PM 37.4 °F 26.1 °F 35.6 °F 93% 29.78 in 7.0 mi SW 24.2 mph 31.1 mph N/A Rain Light Rain
8:12 PM 35.6 °F 24.2 °F 32.0 °F 87% 29.81 in 2.2 mi WNW 21.9 mph 34.5 mph N/A Snow Light Snow Grains
8:19 PM 33.8 °F 24.3 °F 32.0 °F 93% 29.81 in 3.0 mi WNW 13.8 mph 34.5 mph N/A Snow Light Snow
9:00 PM 33.8 °F 25.8 °F 30.2 °F 87% 29.82 in 12.0 mi West 10.4 mph 18.4 mph N/A   Overcast
9:47 PM 33.8 °F 25.3 °F 28.4 °F 81% 29.86 in 12.0 mi WNW 11.5 mph 24.2 mph N/A Snow Light Snow Showers
10:00 PM 32.0 °F 20.8 °F 26.6 °F 80% 29.88 in 15.0 mi WNW 17.3 mph 24.2 mph N/A   Overcast
11:00 PM 30.2 °F 18.9 °F 19.4 °F 64% 29.93 in 15.0 mi WNW 16.1 mph 23.0 mph N/A   Mostly Cloudy